www.pogodaiklimat.ru

Погода и климат >> Архив погоды >> Бельгия >> Элзенборн


ПОГОДА в Элзенборне

  • Прогноз погоды в Элзенборне
  • Монитор погоды в Элзенборне

АРХИВ ПОГОДЫ в Элзенборне

Время (UTC), дата Ветер
(напр.,м/с)
 
Видим.   Явления Облачность Т
(С)
Тd
(С)
f
(%)
Тe
(С)
Тes
(С)
Комфортность P
(гПа)
Po
(гПа)
Тmin
(С)
Tmax
(С)
R
(мм)
R24
(мм)
S
(см)
07 12.05 С 5
{8}
20 км н/о +4.1 0.0 75 -1 -1 1033.0 964.1
08 12.05 С 5
{10}
20 км н/о +4.5 -0.7 69 0 0 1033.5 964.7
09 12.05 СВ 6
{11}
20 км н/о +6.6 0.0 63 +2 +2 1033.4 965.1
10 12.05 С 6
{9}
20 км н/о +6.4 -0.8 60 +2 +2 1033.7 965.4
11 12.05 С 4
{8}
20 км н/о +7.1 -0.3 59 +4 +4 1034.0 965.7
12 12.05 СВ 5
{11}
19 км н/о +9.0 +0.3 54 +6 +6 1033.7 965.9
13 12.05 С 6
{9}
20 км н/о +9.3 0.0 52 +6 +6 1034.0 966.3
14 12.05 С 4
{9}
20 км н/о +8.6 -1.4 49 +6 +6 1034.5 966.6
15 12.05 С 4
{12}
20 км н/о +8.6 -0.1 54 +6 +6 1034.7 966.9
16 12.05 С 4
{8}
20 км н/о +9.8 -1.1 47 +8 +8 1034.5 966.9
17 12.05 С 4
{9}
20 км н/о +8.5 +0.3 56 +6 +6 1035.2 967.3
18 12.05 С 4
{12}
20 км н/о +8.3 0.0 56 +6 +6 1035.5 967.4 +10.0
19 12.05 СВ 2
{4}
20 км н/о +5.8 +0.1 67 +4 +4 1036.7 968.0
20 12.05 СВ 2
{3}
20 км н/о +4.4 +0.3 75 +2 +2 1037.5 968.5
21 12.05 СВ 2
{4}
20 км н/о +3.7 +0.4 79 +1 +1 1037.9 968.6
22 12.05 СВ 2
{4}
20 км н/о +3.5 +0.3 80 +1 +1 1038.2 968.8
23 12.05 СВ 3
{4}
20 км н/о +3.2 +0.3 81 -1 -1 1038.5 969.1
00 13.05 СВ 3
{4}
20 км н/о +3.3 +0.6 82 -1 -1 1038.7 969.3
01 13.05 СВ 3
{4}
20 км н/о +2.0 0.0 87 -2 -2 1039.0 969.2
02 13.05 СВ 2
{4}
20 км н/о +1.5 -0.2 88 -2 -2 1039.2 969.2
03 13.05 нст 1
{4}
20 км н/о +0.8 -0.5 91 -1 -1 1039.4 969.3
04 13.05
{2}
19 км н/о +0.3 -0.8 92 1039.7 969.5
05 13.05
{2}
19 км н/о +1.2 0.0 92 1039.7 969.7
06 13.05 СВ 3
{5}
20 км н/о +3.9 +0.1 76 0 0 1039.0 969.7 -0.2
07 13.05 СВ 4
{6}
20 км н/о +5.6 -3.8 51 +2 +2 1038.7 969.9
08 13.05 СВ 4
{7}
20 км н/о +6.8 -2.3 52 +4 +4 1038.9 970.2
09 13.05 СВ 4
{7}
20 км н/о +8.2 -6.4 35 +6 +6 1038.5 970.2
10 13.05 СВ 5
{10}
20 км н/о +9.1 -6.6 32 +6 +6 1038.5 970.4
11 13.05 СВ 5
{9}
20 км н/о +9.4 -7.4 30 +7 +7 1038.2 970.2
12 13.05 СВ 5
{10}
20 км н/о +10.9 -6.1 30 +9 +9 1037.5 969.9
13 13.05 СВ 6
{10}
20 км н/о +10.9 -4.3 34 +8 +8 1037.2 969.6
14 13.05 СВ 5
{9}
20 км н/о +11.2 -2.7 38 +9 +9 1036.5 969.1
15 13.05 СВ 5
{10}
20 км н/о +11.5 -3.0 36 +9 +9 1036.2 968.8
16 13.05 СВ 6
{10}
19 км н/о +11.3 -3.1 36 +9 +9 1036.0 968.5
17 13.05 СВ 5
{10}
20 км н/о +11.0 -4.6 33 +9 +9 1035.9 968.4
18 13.05 СВ 5
{10}
20 км н/о +10.3 -4.7 34 +8 +8 1035.9 968.2 +11.9
19 13.05 СВ 3
{8}
20 км н/о +8.1 -3.9 42 +6 +6 1036.2 968.0
20 13.05 СВ 3
{4}
20 км н/о +5.8 -3.1 53 +3 +3 1036.9 968.1
21 13.05 СВ 3
{8}
20 км н/о +5.0 -3.2 55 +2 +2 1037.0 968.0
22 13.05 СВ 3
{4}
20 км н/о +5.1 -3.1 55 +2 +2 1037.0 968.0
23 13.05 СВ 3
{5}
20 км н/о +4.6 -2.7 59 +2 +2 1036.7 967.7
00 14.05 СВ 3
{8}
20 км н/о +4.6 -2.0 62 +1 +1 1036.2 967.3
01 14.05 СВ 4
{6}
20 км н/о +3.8 -1.5 68 -0 -0 1035.9 966.7
02 14.05 СВ 4
{6}
20 км н/о +3.0 -1.2 74 -2 -2 1035.9 966.6
03 14.05 СВ 3
{6}
20 км н/о +2.7 -1.0 77 -1 -1 1035.5 966.1
04 14.05 СВ 4
{6}
20 км н/о +1.8 -0.9 82 -3 -3 1035.5 966.0
05 14.05 СВ 4
{7}
20 км н/о +2.5 -0.4 81 -2 -2 1035.2 965.9
06 14.05 СВ 4
{7}
20 км н/о +3.7 0.0 77 -1 -1 1034.9 965.8 +1.7
07 14.05 СВ 4
{8}
20 км н/о +5.6 +0.1 68 +2 +2 1034.0 965.4
08 14.05 СВ 5
{7}
20 км н/о +7.2 -1.4 54 +4 +4 1033.2 965.1
09 14.05 СВ 4
{8}
20 км н/о +8.0 -2.6 47 +5 +5 1033.0 965.0
10 14.05 В 4
{9}
20 км н/о +9.6 -1.6 45 +7 +7 1032.4 964.8
11 14.05 В 4
{9}
20 км н/о +9.8 -1.8 44 +8 +8 1032.2 964.7
12 14.05 СВ 5
{12}
19 км н/о +10.4 0.0 48 +8 +8 1031.4 964.1
13 14.05 В 5
{9}
20 км н/о +11.3 0.0 46 +9 +9 1030.5 963.4
14 14.05 СВ 5
{9}
20 км н/о +11.5 0.0 45 +9 +9 1030.0 963.1
15 14.05 В 5
{10}
20 км н/о +12.2 -0.1 43 +10 +10 1029.2 962.4
16 14.05 СВ 4
{9}
19 км н/о +11.2 -0.9 43 +9 +9 1028.9 961.9
17 14.05 СВ 5
{9}
20 км н/о +10.9 -0.5 45 +9 +9 1028.7 961.7
18 14.05 СВ 5
{10}
20 км н/о +10.5 -0.5 46 +8 +8 1028.7 961.7 +12.3
19 14.05 СВ 4
{9}
20 км н/о +8.9 -1.0 50 +6 +6 1029.0 961.5
20 14.05 СВ 3
{6}
20 км н/о +6.9 -0.8 58 +4 +4 1029.5 961.6
21 14.05 СВ 3
{9}
20 км н/о +6.1 -0.9 61 +3 +3 1029.5 961.4
22 14.05
{4}
20 км н/о +4.5 -1.3 66 1029.7 961.3
23 14.05
{3}
20 км н/о +3.0 -1.3 73 1030.0 961.1
00 15.05 нст 1
{9}
20 км н/о +0.6 -1.7 85 -1 -1 1030.2 960.8
01 15.05 штиль 0
{2}
18 км н/о -0.7 -2.2 90 -2 -2 1030.0 960.2
02 15.05
{1}
15 км н/о -1.6 -2.8 92 1030.0 960.0
03 15.05 нст 1
{2}
20 км н/о -2.2 -3.1 94 -5 -5 1030.0 959.8
04 15.05
{1}
20 км н/о -2.6 -3.6 93 1030.2 959.9
05 15.05
{1}
20 км н/о +0.6 -1.5 86 1029.2 959.8
06 15.05 нст 1
{2}
20 км н/о +3.9 +0.4 78 +3 +3 1028.0 959.4 -2.7
07 15.05 СВ 3
{5}
20 км н/о +7.9 -1.3 52 +6 +6 1027.0 959.4
10 15.05 СВ 5
{9}
20 км н/о +9.8 -4.7 36 +7 +7 1025.5 958.5
11 15.05 СВ 4
{9}
20 км н/о +10.8 -3.8 36 +9 +9 1024.7 958.0
12 15.05 СВ 4
{10}
20 км н/о +11.6 -7.1 26 +10 +10 1024.2 957.6
13 15.05 СВ 6
{10}
20 км н/о +11.7 -7.4 26 +9 +9 1023.8 957.3
14 15.05 СВ 4
{9}
20 км н/о +11.8 -5.1 30 +10 +10 1023.3 956.8
15 15.05 СВ 4
{10}
20 км н/о +12.2 -5.6 28 +11 +11 1022.8 956.5
16 15.05 СВ 4
{8}
20 км н/о +12.4 -5.7 28 +11 +11 1022.5 956.2
17 15.05 СВ 4
{8}
20 км н/о +12.4 -4.3 31 +11 +11 1022.2 955.9
18 15.05 СВ 5
{10}
20 км н/о +11.0 -2.8 38 +9 +9 1022.5 955.9 +13.1
19 15.05 СВ 4
{7}
20 км н/о +9.1 -2.8 43 +7 +7 1023.0 955.9
20 15.05 СВ 3
{5}
20 км н/о +6.8 -2.5 51 +4 +4 1023.6 956.0
21 15.05 СВ 3
{7}
20 км н/о +5.3 -2.4 58 +2 +2 1023.6 955.6
22 15.05
{4}
20 км н/о +4.1 -2.0 64 1023.7 955.5
23 15.05
{2}
20 км н/о +2.6 -2.0 72 1023.7 955.1
00 16.05 нст 1
{7}
20 км н/о +0.3 -2.2 83 -2 -2 1023.8 954.7
01 16.05
{1}
20 км н/о -0.9 -2.7 88 1023.6 954.1
02 16.05
{1}
20 км н/о -1.4 -2.6 92 1023.2 953.7
03 16.05 нст 1
{1}
20 км н/о -1.8 -3.1 91 -4 -4 1023.0 953.3
04 16.05
{1}
20 км н/о -2.2 -3.4 91 1022.8 953.1
05 16.05
{1}
20 км н/о 0.0 -1.4 90 1021.8 952.8
06 16.05 нст 1
{1}
20 км н/о +2.5 -0.2 82 +1 +1 1021.0 952.5 -2.6
07 16.05 СВ 4
{6}
20 км н/о +7.3 +0.4 62 +4 +4 1019.5 952.3
08 16.05 СВ 4
{8}
20 км н/о +8.5 +0.2 56 +6 +6 1018.7 951.8
09 16.05 В 4
{8}
20 км н/о +9.7 +0.4 52 +7 +7 1017.8 951.3
10 16.05 СВ 4
{8}
20 км н/о +9.3 +1.6 59 +7 +7 1017.7 951.1
11 16.05 С 4
{7}
20 км н/о +10.2 +1.2 54 +8 +8 1016.8 950.5
12 16.05 СВ 4
{8}
20 км н/о +10.6 +1.7 54 +8 +8 1016.2 950.0
13 16.05 СВ 4
{8}
19 км н/о +11.6 +2.7 54 +10 +10 1015.3 949.4
14 16.05 С 4
{9}
20 км н/о +10.9 +2.0 54 +9 +9 1015.1 949.0
15 16.05 С 4
{9}
20 км н/о +11.4 +3.3 57 +9 +9 1014.0 948.1
16 16.05 СВ 4
{8}
20 км н/о +12.0 +4.2 59 +10 +10 1013.5 947.8
17 16.05 СВ 5
{8}
19 км н/о +11.3 +4.8 64 +9 +9 1013.0 947.1
18 16.05 СВ 4
{9}
19 км н/о +9.6 +5.0 73 +7 +7 1013.1 946.8 +13.2
19 16.05 СВ 3
{6}
19 км н/о +8.8 +5.0 77 +6 +6 1012.8 946.5
20 16.05 В 2
{6}
20 км н/о +7.9 +4.9 81 +6 +6 1013.0 946.4
21 16.05 нст 1
{6}
19 км н/о +7.5 +4.5 81 +7 +7 1012.7 946.0
22 16.05
{2}
20 км н/о +7.3 +4.7 84 1012.1 945.4
23 16.05
{2}
15 км н/о +7.0 +4.8 86 1011.3 944.7
00 17.05 нст 1
{6}
9000 м н/о +6.7 +4.9 88 +6 +6 1010.8 944.1
01 17.05
{2}
12 км слаб. морось {дождь} н/о +6.3 +5.1 92 1010.0 943.2
02 17.05
{1}
3500 м слаб. дождь {морось} н/о +6.0 +5.4 96 1009.5 942.7
03 17.05 нст 1
{2}
2800 м слаб. дождь {морось} н/о +5.9 +5.5 97 +5 +5 1009.0 942.2
04 17.05
{2}
2800 м слаб. дождь н/о +5.9 +5.7 99 1008.7 942.0
05 17.05
{2}
4700 м слаб. дождь н/о +5.9 +5.7 99 1008.7 942.0
06 17.05 нст 1
{2}
3200 м слаб. дождь {морось} н/о +5.8 +5.7 99 +4 +4 1008.6 941.8 +5.8 3
07 17.05
{2}
7000 м слаб. дождь н/о +6.0 +6.0 100 1008.3 941.7
08 17.05
{2}
9000 м слаб. дождь н/о +6.5 +6.2 98 1008.0 941.4
09 17.05 нст 1
{2}
9000 м слаб. дождь н/о +7.4 +7.0 97 +6 +6 1007.5 941.1
10 17.05
{3}
11 км {дождь} н/о +8.9 +7.8 93 1006.7 940.8
11 17.05 Ю 2
{4}
10 км н/о +9.3 +7.8 90 +8 +8 1006.7 940.8
12 17.05 ЮВ 2
{4}
15 км {дождь} н/о +11.6 +7.5 76 +11 +11 1006.0 940.8
13 17.05
{5}
17 км н/о +11.7 +7.9 77 1006.0 940.8
14 17.05 Ю 3
{6}
20 км н/о +13.1 +6.1 62 +12 +12 1005.3 940.5
15 17.05 ЮВ 3
{6}
20 км н/о +12.8 +6.1 64 +12 +12 1005.5 940.5
16 17.05 ЮВ 3
{5}
20 км н/о +11.8 +7.4 74 +10 +10 1005.7 940.5
17 17.05
{4}
20 км н/о +11.3 +8.1 81 1005.6 940.3
18 17.05 нст 1
{6}
20 км н/о +11.1 +8.4 83 +11 +11 1005.6 940.3 +13.6
19 17.05
{2}
17 км н/о +10.0 +8.3 89 1006.0 940.4
20 17.05
{1}
10 км н/о +8.8 +8.3 97 1006.6 940.7
21 17.05 нст 1
{2}
7000 м н/о +8.3 +7.8 97 +7 +7 1006.8 940.8
22 17.05
{2}
2800 м дымка н/о +7.3 +6.8 97 1007.0 940.6
23 17.05
{1}
200 м туман н/о +6.3 +5.9 97 1007.1 940.5
00 18.05 нст 1
{2}
3600 м дымка {туман} н/о +6.0 +5.9 99 +5 +5 1007.2 940.5
01 18.05
{1}
3700 м н/о +5.1 +4.9 99 1007.2 940.5
02 18.05
{1}
6000 м {туман} н/о +6.1 +6.1 100 1006.8 940.4
03 18.05 нст 1
{1}
4600 м слаб. морось {дождь} н/о +7.0 +6.9 99 +6 +6 1006.6 940.2
04 18.05
{1}
2800 м дымка н/о +6.3 +6.2 99 1006.5 940.0
05 18.05
{1}
6000 м н/о +6.5 +6.5 100 1006.7 940.2
06 18.05 нст 1
{2}
6000 м {дождь, морось} н/о +9.6 +8.9 95 +9 +9 1006.0 940.3 +4.3 0.1
07 18.05
{2}
12 км н/о +11.3 +9.0 86 1005.8 940.6
08 18.05
{4}
14 км н/о +12.3 +9.2 81 1005.8 940.8
09 18.05 ЮЗ 2
{4}
18 км {дождь} н/о +13.1 +7.8 70 +12 +12 1006.0 941.1
10 18.05 З 2
{4}
20 км {дождь} н/о +14.5 +8.7 68 +14 +14 1005.7 941.1
11 18.05 ЮЗ 2
{5}
18 км н/о +16.3 +8.4 59 +16 +16 1005.2 941.0
12 18.05 нст 1
{5}
20 км {дождь} н/о +15.9 +7.4 57 +17 +17 1005.2 940.9 0.0
13 18.05 ЮЗ 2
{4}
7000 м дождь н/о +13.8 +9.5 75 +13 +13 1005.8 941.1
14 18.05
{3}
20 км {дождь} н/о +16.2 +8.0 58 1005.0 940.8
15 18.05 нст 1
{4}
20 км {дождь} н/о +15.4 +10.6 73 +16 +16 1005.2 940.9
16 18.05 В 3
{6}
20 км н/о +14.5 +10.2 75 +14 +14 1005.5 940.9
17 18.05 С 3
{5}
20 км {дождь, морось} н/о +12.6 +10.5 87 +11 +11 1006.2 941.2
18 18.05 нст 1
{6}
20 км {дождь, морось} н/о +13.0 +10.3 84 +13 +13 1006.2 941.3 +17.8 0.9
19 18.05
{2}
20 км н/о +11.8 +9.8 88 1007.0 941.8
20 18.05
{3}
20 км н/о +11.3 +9.6 89 1007.7 942.4
21 18.05 нст 1
{4}
20 км слаб. дождь {морось} н/о +11.0 +9.7 92 +11 +11 1007.2 941.9
22 18.05
{1}
7000 м слаб. дождь н/о +10.2 +10.0 99 1007.2 941.7
23 18.05
{2}
10 км {дождь} н/о +10.2 +9.8 97 1007.3 941.8
00 19.05 нст 1
{4}
5000 м {дождь, морось} н/о +10.1 +9.6 97 +9 +9 1007.1 941.5 0.4
01 19.05
{2}
2100 м слаб. дождь {морось} н/о +10.0 +9.7 98 1006.8 941.3
02 19.05
{1}
1500 м дымка {дождь} н/о +9.6 +9.4 99 1006.5 940.8
03 19.05 штиль 0
{2}
2200 м дымка {дождь} н/о +8.8 +8.7 99 +8 +8 1006.5 940.6
04 19.05
{2}
1700 м дымка {дождь} н/о +9.3 +9.2 99 1006.2 940.4
05 19.05
{2}
5000 м н/о +10.5 +9.6 94 1005.7 940.4
06 19.05 нст 1
{2}
4000 м дымка {дождь} н/о +11.0 +10.4 96 +11 +11 1006.0 940.6 +8.8 0.6
07 19.05 СВ 2
{4}
7000 м н/о +12.1 +10.0 87 +11 +11 1005.8 940.8

 

Местоположение метеостанции Элзенборн (Бельгия): широта 50.47 долгота 6.18 высота над уровнем моря 570 м.

В архиве по умолчанию представлена погода в Элзенборне за последнюю неделю. Архивные данные за месяц целиком и за предыдущие месяцы, начиная с января 2011 года, Вы можете получить, выбрав интересующий диапазон дат из раскрывающегося списка и нажав кнопку "Ввод!".


*Определитесь, кто Вы:
робот инопланетянин человек

Внимание! Время в таблицах - всемирное. Для получения местного времени необходимо прибавить поправку, которая равна 1 ч.

Смотрите также архив погоды в соседних городах и на ближайших метеорологических станциях:

Погода на Монт-Риги (Бельгия) (10 км)
Погода в Спа (Бельгия) (18 км)
Погода в Ахен-Орсбахе (Германия) (37 км)
Погода в Нюрбург-Барвайлере (Германия) (50 км)
Погода в Нёрфенихе (Германия) (53 км)
Погода в Бьерсете (Бельгия) (55 км)
Погода в Гайленкирхене (Германия) (56 км)
Погода в Маастрихте (Нидерланды) (57 км)
Погода на Базе ВВС Buechel (Германия) (71 км)
Погода в Дипенбеке (Бельгия) (72 км)

Пояснения к столбцам:

Ветер - указаны скорость ветра в м/с - средняя за 10 мин, порывы в срок и между сроками (в фигурных скобках) и направление, откуда дует ветер: С - северный, СВ - северо-восточный, В - восточный, ЮВ - юго-восточный, Ю - южный, ЮЗ - юго-западный, З - западный, СЗ - северо-западный.
Видимость - горизонтальная дальность видимости в метрах или километрах. При видимости от 1 до 10 км при отсутствии осадков обычно наблюдается дымка, при ухудшении видимости до 1 км и менее - туман. В сухую погоду видимость может ухудшаться дымом, пылью или мглою.
Явления - указаны атмосферные явления, наблюдавшиеся в срок или в последний час перед сроком; фигурными скобками обозначены явления, наблюдавшиеся между сроками (за 1-3 часа до срока); квадратными скобками обозначены град или гололедные отложения с указанием их диаметра в мм.
Облачность - указаны через наклонную черту общая и нижняя облачность в баллах и высота нижней границы облаков в метрах; квадратными скобками обозначены формы облаков: Ci - перистые, Cs - перисто-слоистые, Cc - перисто-кучевые, Ac - высококучевые, As - высокослоистые, Sc - слоисто-кучевые, Ns - слоисто-дождевые, Cu - кучевые, Cb - кучево-дождевые. Подробнее классификацию облаков см. в Атласе облаков (PDF).
T - Температура воздуха - температура, измеренная на высоте 2 м над землей.
Td - Температура точки росы - температура, при понижении до которой содержащийся в воздухе водяной пар достигнет насыщения.
f - Относительная влажность воздуха - влажноcть воздуха, измеренная на высоте 2 м над землей.
Te - Эффективная температура - температура, которую ощущает одетый по сезону человек в тени. Характеристика душности погоды. При расчете учитывается влияние влажности воздуха и скорости ветра на теплоощущения человека.
Tes - Эффективная температура на солнце - температура, которую ощущает человек, с поправкой на солнечный нагрев. Характеристика знойности погоды. Зависит от высоты солнца над горизонтом, облачности и скорости ветра. Ночью, в пасмурную погоду, а также при ветре 12 м/с и более поправка равна нулю.
P - Атмосферное давление - приведенное к уровню моря атмосферное давление.
Po - Атмосферное давление - измеренное на уровне метеостанции атмосферное давление.
Tmin - Минимальная температура - минимум температуры воздуха на высоте 2 м над землей.
Tmax - Максимальная температура - максимум температуры воздуха на высоте 2 м над землей.
R - Количество осадков - Количество выпавших осадков за период времени, мм. При наведении курсора мыши на число - период времени, за который выпало указанное количество осадков.
R24 - Количество осадков - Количество выпавших осадков за 24 часа, мм.
S - Снежный покров - Высота снежного покрова, см. При наведении курсора мыши на число - состояние снежного покрова и степень покрытия местности в баллах.